Regional Weather Roundup
Issued by NWS

Home | Current Version | Previous Version | Graphics & Text | Print | Product List | Glossary On
Versions: 1 2 3 4 5 6 7 8 9 10 11 12 13 14 15 16 17 18 19 20 21 22 23 24 25 26 27 28 29 30 31 32 33 34 35 36 37 38 39 40 41 42 43 44 45 46 47 48 49 50
680
ASUS45 KBOU 220410
RWRCO

WEATHER ROUNDUP FOR COLORADO
NATIONAL WEATHER SERVICE DENVER/BOULDER CO
900 PM MST TUE NOV 21 2017

NOTE: "FAIR" INDICATES FEW OR NO CLOUDS BELOW 12000 FEET WITH NO
SIGNIFICANT WEATHER AND/OR OBSTRUCTIONS TO VISIBILITY.

COZ001>005-013-030-031-220500-
...NORTHWEST COLORADO...

CITY           SKY/WX    TMP DP  RH WIND       PRES   REMARKS
CRAIG          FAIR      34  30  85 NE3       30.41R
HAYDEN         FAIR      36  32  85 SE7       30.43R
MEEKER         FAIR      37  32  82 SE5       30.42R
RABBIT EARS PA FOG      N/A N/A N/A W7        30.48R VSB 1/2
STEAMBOAT SPGS CLOUDY    34  34  99 CALM      30.42R
WALDEN         FAIR      34  28  80 S8        30.42S WCI  27
$$

COZ006>008-011-220500-
...WEST CENTRAL VALLEYS...

CITY           SKY/WX    TMP DP  RH WIND       PRES   REMARKS
GRAND JUNCTION FAIR      43  24  47 E6        30.40R
MONTROSE       FAIR      34  27  75 SE9       30.43S WCI  27
EAGLE          FAIR      33  28  81 E6        30.47R WCI  28
RIFLE          FAIR      35  31  85 CALM      30.43R
DELTA          FAIR      40  24  52 NE5       30.42R
NUCLA          FAIR      41  27  56 E9        30.43S
$$

COZ017>023-064>068-220500-
...SOUTHWEST COLORADO...

CITY           SKY/WX    TMP DP  RH WIND       PRES   REMARKS
DURANGO        FAIR      33  19  56 N3        30.37R
CORTEZ         FAIR      42  28  57 NE8       30.39R
PAGOSA SPRINGS FAIR      32  21  64 CALM      30.42R
TELLURIDE      FAIR      36  26  65 CALM      30.51R
WOLF CREEK PAS FAIR      30  12  47 SW5       30.59R WCI  25
$$

COZ009-010-012-014-032>034-037-058>063-220500-
...CENTRAL COLORADO...

CITY           SKY/WX    TMP DP  RH WIND       PRES   REMARKS
ASPEN          FAIR      33  28  81 SW8       30.45R WCI  26
BUENA VISTA    FAIR      40  24  53 NW14G24   30.38S
COPPER MTN     CLOUDY    28  23  80 MISG      30.52S
BERTHOUD PASS  CLOUDY    19   9  63 N32G43    30.46S WCI   0
COTTONWOOD PAS FAIR      41  25  52 W15G25    30.43R
GUNNISON       FAIR      31  26  82 N3        30.45R
KREMMLING      CLOUDY    37  34  87 CALM      30.45R
LEADVILLE      FAIR      24  20  84 N12       30.47R WCI  13
MONARCH PASS   FAIR      23  21  93 SW22      30.60S WCI   8
SALIDA         FAIR      34  30  86 E3        30.46F
SUNLIGHT       FAIR      28  27  93 MISG      30.57R
WILKERSON PASS FAIR      28  18  64 NW14G28   30.45S WCI  17
$$

COZ069>075-220500-
...SAN LUIS VALLEY/SANGRE DE CRISTO MOUNTAINS...

CITY           SKY/WX    TMP DP  RH WIND       PRES   REMARKS
ALAMOSA        FAIR      30  19  63 S6        30.40R WCI  24
DEL NORTE      FAIR      33  17  52 W7        30.41R WCI  27
LA VETA PASS   FAIR      32  21  64 SW22G28     N/A  WCI  19
SAGUACHE       FAIR      39  27  60 NW3       30.41R
$$

COZ035-036-038>040-220500-
...NORTHERN COLORADO FRONT RANGE...

CITY           SKY/WX    TMP DP  RH WIND       PRES   REMARKS
DENVER INTL AP FAIR      35  28  75 SW9       30.26F WCI  28
DMNS CITY PARK   N/A     37  33  84 E8        30.25F
AURORA         PTCLDY    39  33  78 S15       30.26F
FRONT RANGE AP FAIR      40  34  81 S8        30.27F
ERIE MUNI ARPT FAIR      31  29  91 CALM      30.32F
BOULDER MUN AP FAIR      36  34  93 W3        30.26F
CENTENNIAL     FAIR      37  32  82 S5        30.26F
BROOMFIELD     MOCLDY    39  34  81 NW6       30.25F
FORT COLLINS   FAIR      36  33  89 CALM      30.28F
LONGMONT       FAIR      34  31  90 W5        30.28F WCI  29
$$

COZ041-046-047-076>085-087-088-220500-
...PIKES PEAK/PALMER DIVIDE AND SOUTHERN FOOTHILLS...

CITY           SKY/WX    TMP DP  RH WIND       PRES   REMARKS
COLO. SPRINGS  FAIR      36  29  75 SE6       30.36S
A. F. ACADEMY  FAIR      34  29  83 CALM      30.35R
SCHRIEVER AFB  FAIR      31  26  80 SW3       30.36S
CHEYENNE MTN   FAIR      35  31  85 CALM      30.29S
ELLICOTT         N/A      1   1 100 S8        30.34S WCI -13
FALCON         FAIR      30  28  90 W6        30.37R WCI  24
FORT CARSON    FAIR      36  30  79 S7        30.34S
LIMON          FAIR      19  18  95 CALM      30.33S
MONUMENT HILL  FAIR      32  30  93 S15       30.33S WCI  22
CANON CITY     FAIR      37  32  81 CALM      30.35S
WALSENBURG     FAIR      32  30  93 S6        30.37R WCI  26
TRINIDAD       FAIR      33  30  88 W9        30.36S WCI  25
$$

COZ042>045-048>051-090-091-220500-
...NORTHEAST COLORADO...

CITY           SKY/WX    TMP DP  RH WIND       PRES   REMARKS
GREELEY ARPT   FAIR      31  28  89 N6        30.29F WCI  25
AKRON          FAIR      35  25  66 S9        30.28F WCI  28
BURLINGTON     FAIR      29  23  78 S10       30.34S WCI  20
WRAY           NOT AVBL
YUMA           FAIR      27  23  86 SW7       30.30S WCI  19
STERLING       FAIR      28  23  80 CALM      30.27F
HOLYOKE        FAIR      28  21  74 S5        30.30S WCI  23
FORT MORGAN    FAIR      32  24  71 SW3       30.29F
$$

COZ086-089-092>099-220500-
...SOUTHEAST COLORADO...

CITY           SKY/WX    TMP DP  RH WIND       PRES   REMARKS
PUEBLO         FAIR      33  26  75 NE3       30.35R
LA JUNTA       FAIR      33  24  69 E5        30.35S WCI  29
LAMAR          FAIR      27  20  75 SW8       30.35S WCI  19
SPRINGFIELD      N/A     24  20  84 S5        30.37R WCI  18
$$




USA.gov is the U.S. government's official web portal to all federal, state and local government web resources and services.